Regional Weather Roundup
Issued by NWS Upton, NY

Current Version | Previous Version | Graphics & Text | Print | Product List | Glossary Off
Versions: 1 2 3 4 5 6 7 8 9 10 11 12 13 14 15 16 17 18 19 20 21 22 23 24 25 26 27 28 29 30 31 32 33 34 35 36 37 38 39 40 41 42 43 44 45 46 47 48 49 50

000
ASUS41 KOKX 010105
RWROKX

REGIONAL WEATHER ROUNDUP
NATIONAL WEATHER SERVICE NEW YORK NY
900 PM EDT TUE SEP 30 2014

NOTE: "FAIR" INDICATES FEW OR NO CLOUDS BELOW 12,000 FEET WITH NO
SIGNIFICANT WEATHER AND/OR OBSTRUCTIONS TO VISIBILITY.

NYZ071-072-176-178-NJZ106-104-010200-
NEW YORK CITY METRO AREA


CITY           SKY/WX    TMP DP  RH WIND       PRES   REMARKS
CENTRAL PARK   CLOUDY    65  57  75 E7        30.00R
LAGUARDIA APRT CLOUDY    65  58  78 E9        29.97R
KENNEDY INTL   CLOUDY    65  58  78 NE10      29.98R
NEWARK/LIBERTY MOCLDY    67  58  72 E7        29.97R
BRNX BOT. GARD   N/A     63  57  82 E3        29.99R
TETERBORO      CLOUDY    66  57  72 NE6       29.96R
$$

NYZ177-179-078>081-010200-
LONG ISLAND NEW YORK

CITY           SKY/WX    TMP DP  RH WIND       PRES   REMARKS
FARMINGDALE    CLOUDY    64  59  83 NE6       29.97S
ISLIP          CLOUDY    63  58  83 E7        29.96R
SHIRLEY        CLOUDY    62  58  86 CALM      29.99R
WESTHAMPTON    CLOUDY    61  58  90 E5        29.99R
MONTAUK POINT    N/A     60  57  89 NE10      29.99R
$$

NYZ052-065-067-010200-
HUDSON VALLEY

CITY           SKY/WX    TMP DP  RH WIND       PRES   REMARKS
WHITE PLAINS   MOCLDY    61  57  87 E5        29.98R
NEWBURGH       NOT AVBL
MONTGOMERY     FAIR      61  57  87 NE3       29.98R
POUGHKEEPSIE   FAIR      59  55  87 E5        29.98R
ALBANY         MOCLDY    62  55  77 S6        29.99R
$$

NJZ001-105-106-008-010-013-015-019>022-104-010200-
NEW JERSEY

CITY           SKY/WX    TMP DP  RH WIND       PRES   REMARKS
NEWARK/LIBERTY MOCLDY    67  58  72 E7        29.97R
TETERBORO      CLOUDY    66  57  72 NE6       29.96R
CALDWELL       CLOUDY    63  56  78 E5        29.98R
MORRISTOWN     MOCLDY    61  57  88 CALM      29.97R
SOMERVILLE     FAIR      62  57  83 CALM      29.95R
LINDEN         CLOUDY    70  62  74 SE8       29.98R
SUSSEX         FAIR      63  57  81 CALM      29.98R
ANDOVER          N/A     61  57  87 CALM      29.98R
TRENTON        FAIR      63  57  81 E5        29.96R
MILLVILLE      FAIR      63  59  87 NE3       29.94R
ATLANTIC CITY  FAIR      61  59  93 N3        29.94R
WRIGHTSTOWN    MOCLDY    60  60  97 NE5       29.94R
TOMS RIVER     FAIR      63  59  88 NE3       29.96R
BELMAR         CLOUDY    63  55  77 E9        29.96R
$$

PAZ047>061-062-071-010200-
EASTERN PENNSYLVANIA

CITY           SKY/WX    TMP DP  RH WIND       PRES   REMARKS
PHILADELPHIA   MOCLDY    66  59  78 E6        29.96R
ALLENTOWN      LGT RAIN  65  57  75 E9        29.96R
SCRANTON       CLOUDY    66  55  67 E5        29.95R
$$

CTZ002-004>006-009-010-012-RIZ004-006-007-MAZ004-011-015-010200-
SOUTHERN NEW ENGLAND
 IN CT

CITY           SKY/WX    TMP DP  RH WIND       PRES   REMARKS
BRADLEY INTL   CLOUDY    61  55  81 NE10      30.00S
HARTFORD       CLOUDY    61  56  83 VRB6      30.00R
DANBURY        MOCLDY    59  55  87 VRB3      30.01R
WTRBRY/OXFORD  CLOUDY    57  54  88 NE8       30.01R
BRIDGEPORT     LGT RAIN  62  58  86 NE8       29.99R
MERIDEN        CLOUDY    61  56  83 NE5       30.00R
NEW HAVEN      CLOUDY    64  57  78 NE9       29.99R
CHESTER        CLOUDY    57  55  94 NE6       30.00S
GROTON         CLOUDY    58  56  93 NE7       29.98R
WILLIMANTIC    CLOUDY    58  55  90 NE7       30.01R

 IN RI

CITY           SKY/WX    TMP DP  RH WIND       PRES   REMARKS
PROVIDENCE     CLOUDY    57  55  93 NE12      30.02R
BLOCK ISLAND   CLOUDY    59  54  82 NE9G18    29.98S
WESTERLY       CLOUDY    58  55  90 NE9       29.99S

 IN MA

CITY           SKY/WX    TMP DP  RH WIND       PRES   REMARKS
BOSTON         CLOUDY    57  55  93 N10       30.04S
WORCESTER      LGT RAIN  54  54 100 NE7       30.04S FOG
WESTFIELD      CLOUDY    61  56  83 N5        30.02R
PROVINCETOWN   CLOUDY    61  57  88 N13       30.00S
NANTUCKET      CLOUDY    63  61  93 N10       29.96R
$$

ANZ330-335-338-340-345-350-353-355-010200-
COASTAL MARINE OBSERVATIONS


STATION/POSITION TIME  SKY/WX   TEMP    WIND        PRES    VSBY  WAVE
                                AIR SEA DIR/SP/G                  HT/PER
                 (UTC)          (F)     (DEG/KT/KT) (MB)    (MI)  (FT/S)
NY HARB ENTRANCE NOT AVBL
4S FIRE IS       0100               68                N/A           3/ 5
20S FIRE ISLAND  0100            64 67   60/ 19/ 21 1013.8          5/ 6
23SW MTP         0100                                 N/A           4/ 5
HUDSON CANYON    0100            66 69   60/ 19/ 21 1012.5          4/ 5
EXECUTION ROCKS  0100            65 69   70/ 12/ 16   N/A
WESTERN LI SOUND 0100            64      70/ 12/ 16   N/A           1/ 3
CENTRAL LI SOUND 0000            62 69   60/ 12/ 16   N/A           1/ 3
EASTERN LI SOUND 0000            60 67   50/ 12/ 16   N/A
ROBBINS REEF     0100            65      80/ 10/ 11 1013.7
$$


>>>>>>>>>>>>>>>>>>>>>>>>>>>> KEY <<<<<<<<<<<<<<<<<<<<<<<<<<<
>                                                          <
>     SKY/WX - SKY CONDITION/PRESENT WEATHER               <
>     TMP    - TEMPERATURE IN FAHRENHEIT                   <
>     DP     - DEWPOINT IN FAHRENHEIT                      <
>     RH     - RELATIVE HUMIDITY IN PERCENT                <
>     WIND   - DIRECTION AND SPEED IN MPH                  <
>     PRES   - MEAN SEA LEVEL PRESSURE IN INCHES OF HG     <
>     WCI    - WIND CHILL INDEX                            <
>     VSB    - VISIBILITY IN MILES                         <
>     HX     - HEAT INDEX                                  <
>     TC     - TEMPERATURE IN CELSIUS                      <
>     VRB    - VARIABLE WIND DIRECTION                     <
>                                                          <
>>>>>>>>>>>>>>>>>>>>>>>>>>>> KEY <<<<<<<<<<<<<<<<<<<<<<<<<<<




USA.gov is the U.S. government's official web portal to all federal, state and local government web resources and services.